Miscellaneous Local Product
Issued by NWS Hastings, NE

Home | Current Version | Previous Version | Graphics & Text | Print | Product List | Glossary On
Versions: 1 2 3 4 5 6 7 8 9 10 11 12 13 14 15 16 17 18 19 20 21 22 23 24 25 26 27 28 29 30 31 32 33 34 35 36 37 38 39 40 41 42 43 44 45 46 47 48 49 50
000
AXUS43 KGID 302202
MISGRI

GID CWA HOURLY WEATHER ROUNDUP
NATIONAL WEATHER SERVICE HASTINGS NE
500 PM CDT MON MAY 30 2016

NOTE: "FAIR" INDICATES FEW OR NO CLOUDS BELOW 12,000 FEET WITH NO
SIGNIFICANT WEATHER AND/OR OBSTRUCTIONS TO VISIBILITY.

...SOUTH CENTRAL NEBRASKA...

CITY           SKY/WX    TMP DP  RH WIND       PRES   REMARKS
GRAND ISLAND   SUNNY     85  50  29 S18G25    29.85F
HASTINGS       SUNNY     82  55  39 S16G23    29.87F
KEARNEY        SUNNY     82  54  36 S15G24    29.87F
ORD            SUNNY     84  53  34 S16G22    29.82F
YORK           SUNNY     82  55  39 S21       29.86F
AURORA         SUNNY     83  52  33 S15       29.86F
LEXINGTON      SUNNY     81  56  42 S17       29.85F
HOLDREGE       SUNNY     82  52  36 S17G24    29.87F
HEBRON         SUNNY     82  56  40 S12G17    29.90F

...NEBRASKA PANHANDLE...

CITY           SKY/WX    TMP DP  RH WIND       PRES   REMARKS
CHADRON        CLOUDY    79  46  31 NW15G30   29.86R
ALLIANCE       CLOUDY    73  46  38 SW22G29   29.90R
SCOTTSBLUFF    CLOUDY    67  45  45 S13       29.93F
SIDNEY         TSTM      56  48  74 N10       30.01F

...WESTERN AND NORTH CENTRAL NEBRASKA...

CITY           SKY/WX    TMP DP  RH WIND       PRES   REMARKS
VALENTINE      CLOUDY    74  53  48 S9        29.80F
AINSWORTH      SUNNY     81  51  34 S18G24    29.81F
ONEILL         SUNNY     81  55  40 S13G21    29.84F
BROKEN BOW     SUNNY     82  55  39 S17G28    29.84F
IMPERIAL       SUNNY     82  54  37 S10       29.85F
NORTH PLATTE   SUNNY     81  58  45 S14       29.84F
MCCOOK         SUNNY     82  58  43 S15G22    29.83F

...EASTERN NEBRASKA...

CITY           SKY/WX    TMP DP  RH WIND       PRES   REMARKS
NORFOLK        SUNNY     83  54  36 S14       29.83F
SO SIOUX CITY  SUNNY     88  59  37 S16       29.83F
TEKAMAH        SUNNY     89  52  28 S16       29.83F
COLUMBUS       SUNNY     84  55  37 S15G25    29.85F
ALBION         SUNNY     82  58  44 S14       29.84F
OMAHA EPPLEY   TSTM      82  57  42 S18G28    29.86F
OFFUTT AFB     PTSUNNY   78  61  55 S12       29.89R
MILLARD        LGT RAIN  76  58  51 S16G24    29.89R
LINCOLN        SUNNY     87  55  33 SW16      29.86F
NEBRASKA CITY  TSTM      76  58  52 S3        29.89F
BEATRICE       MOSUNNY   84  61  45 SW16      29.87F
FALLS CITY     LGT RAIN  85  65  51 S14G24    29.88F

...NORTHERN KANSAS...

CITY           SKY/WX    TMP DP  RH WIND       PRES   REMARKS
GOODLAND       SUNNY     84  52  33 S21G28    29.86F
HILL CITY      SUNNY     85  54  34 S15       29.86F
NORTON         CLEAR     84  46  26 S15G24    29.85F
PHILLIPSBURG   SUNNY     82  55  39 S14G20    29.86F
SMITH CENTER   SUNNY     81  61  50 SE18      29.88F
BELOIT         SUNNY     81  57  44 SE12G18   29.87F
HAYS           SUNNY     82  55  39 S17G23    29.88F
RUSSELL        SUNNY     81  60  48 S20G26    29.88F
CONCORDIA      SUNNY     82  60  47 SW15G21   29.89F
SALINA         SUNNY     84  62  47 S13       29.90F
TOPEKA         MOSUNNY   83  64  52 S14       29.93F



USA.gov is the U.S. government's official web portal to all federal, state and local government web resources and services.